Theta_e
332 328 329 324 323 324 320 316 301 307 306 299 298 300 298 302 301 302 303 305 306 311 311 314 320 317 312 311 311 312 310 311 311 304 305 323 334 338 340 341 344 344 345 346 348 349 349 347 348 347 347 347 345 344 345 343 342 341 341 341 341 341 341 341 345 346 345 345 346 344 342 341 340 340 339 339 339 338 338 339 340 342 344 344 343 343 340 340 340 340 340 340 340 339 339 339 338
328 327 326 327 323 318 312 310 306 301 302 297 299 299 300 301 301 303 303 306 308 310 309 319 319 315 313 313 314 313 312 318 315 320 326 332 335 336 340 342 343 342 345 347 347 348 348 348 347 347 347 347 345 344 345 345 345 344 343 342 342 342 342 341 344 346 345 345 346 344 342 341 340 339 338 337 339 338 338 340 340 341 343 342 342 342 340 340 340 339 339 339 339 338 339 339 339
326 326 323 324 321 317 314 312 301 300 297 295 297 300 300 301 302 305 307 305 307 308 314 317 317 313 311 310 310 310 310 321 318 325 328 335 329 332 339 343 343 345 345 347 347 347 348 347 345 347 347 347 345 345 345 345 344 343 342 343 343 342 342 342 343 346 345 345 345 344 342 340 339 339 338 338 337 340 339 338 340 340 340 339 338 345 344 343 342 342 341 340 341 340 340 340 340
328 324 326 322 314 318 310 306 304 300 297 298 297 300 300 303 303 305 305 309 310 312 315 314 314 313 311 309 310 314 314 318 322 327 327 330 333 337 340 342 345 345 347 347 347 348 349 346 345 348 347 346 345 344 345 345 345 345 344 343 343 343 342 341 343 345 344 344 344 343 342 341 340 338 337 338 338 338 339 343 343 344 343 340 341 342 343 342 340 340 339 339 340 339 340 340 339
326 322 326 322 319 308 310 304 302 301 296 298 297 300 301 304 304 304 307 310 308 308 311 314 313 314 315 313 314 310 317 325 325 331 331 335 340 339 340 344 344 344 344 346 347 348 349 344 345 347 347 346 346 345 345 345 345 344 343 343 342 342 342 342 341 345 344 344 344 343 342 341 340 339 337 337 336 338 338 339 341 343 343 343 343 343 342 341 341 341 341 341 340 340 340 340 340
323 321 323 322 311 312 308 301 300 299 301 302 298 300 302 304 303 306 307 308 308 307 307 312 310 312 312 316 318 315 323 318 328 329 332 334 339 340 340 344 343 342 344 346 347 347 349 342 344 347 347 346 345 344 345 344 345 344 344 342 341 342 342 341 341 342 343 344 344 342 341 340 339 339 338 337 336 338 338 339 339 340 342 342 342 342 342 342 341 341 340 341 340 340 340 339 340
321 318 316 314 310 313 304 301 300 300 299 299 300 300 302 303 305 308 306 306 305 304 303 310 310 312 309 315 316 322 327 327 329 331 336 339 342 340 341 343 343 342 344 345 347 348 349 342 346 348 348 347 345 346 345 345 345 345 344 343 343 341 340 341 341 341 341 341 342 341 340 339 338 338 336 337 337 337 338 339 340 340 340 341 341 341 342 341 341 341 340 340 340 339 339 339 339
320 316 314 309 304 307 302 302 301 302 299 298 299 300 302 303 307 308 306 306 303 304 303 307 311 309 308 312 312 323 326 327 332 335 338 339 341 340 342 342 341 341 343 346 347 347 346 341 345 347 347 347 346 345 346 345 344 344 344 343 342 342 342 342 342 341 341 341 340 340 339 338 338 337 336 336 336 337 338 338 339 340 340 340 340 340 340 341 341 340 340 340 339 339 338 339 339
317 314 310 310 302 303 300 300 300 298 298 297 299 299 303 304 307 308 306 304 304 304 305 309 309 305 309 309 311 323 324 329 330 332 336 339 338 339 340 340 339 341 343 344 346 348 350 340 344 346 346 347 346 345 345 344 344 344 344 344 344 343 341 341 341 340 340 339 339 338 337 337 336 336 336 335 336 337 337 338 337 337 337 338 338 339 339 339 339 339 340 339 339 338 338 338 338
313 313 306 307 306 299 299 298 298 299 299 300 301 301 302 303 305 308 306 303 305 305 308 310 306 305 309 307 312 318 324 329 331 334 337 339 339 339 339 340 341 341 343 344 346 347 347 346 341 343 345 346 346 346 345 345 344 344 344 343 343 342 341 341 341 340 339 338 338 338 338 336 335 336 335 336 337 336 337 337 337 338 339 339 338 338 338 337 338 339 339 338 338 338 337 337 337
308 310 313 305 301 299 298 298 299 298 299 300 301 301 304 304 306 305 305 304 303 306 306 306 304 305 309 309 314 321 326 328 331 332 336 339 339 337 338 341 342 343 342 345 346 347 347 348 342 340 342 343 345 346 345 345 344 344 344 343 342 342 341 341 340 339 338 337 338 337 337 336 334 335 334 336 337 336 336 336 336 337 337 336 337 339 339 338 338 339 339 337 337 337 337 337 337
306 308 309 302 300 300 298 298 298 300 300 301 301 302 303 304 304 303 303 302 302 304 307 305 305 310 306 307 312 319 325 329 334 335 338 339 338 338 339 340 342 343 344 345 346 346 347 347 349 343 338 340 341 343 344 344 345 344 343 343 342 341 341 339 339 339 339 338 337 336 335 335 334 334 335 336 338 338 336 336 336 336 337 338 338 338 338 338 337 338 337 337 337 337 337 336 336
309 309 305 302 300 300 298 297 298 300 301 300 302 302 304 303 304 306 304 304 304 305 305 308 311 311 303 306 313 318 325 330 335 336 338 339 338 338 339 339 341 342 343 345 345 345 347 346 346 348 342 335 336 338 339 341 342 344 344 343 342 341 340 340 340 339 338 337 336 335 336 336 335 335 334 336 339 338 336 336 335 336 337 337 336 336 336 336 336 336 336 336 336 336 336 336 335
309 311 308 301 297 300 299 299 298 298 298 302 302 301 303 304 305 305 305 303 303 304 304 309 310 309 307 307 310 315 325 333 335 336 338 339 339 338 338 339 341 341 344 344 343 344 345 345 346 347 347 346 346 340 334 337 339 341 342 342 341 341 341 340 340 340 339 338 338 337 337 337 337 335 335 336 339 337 336 337 337 335 336 336 335 335 336 336 336 336 336 336 336 336 335 335 334
311 308 307 303 299 299 298 298 298 298 298 302 300 301 301 302 302 303 305 303 304 304 305 308 311 306 303 304 307 314 327 333 334 336 338 338 337 337 338 339 340 341 342 342 343 344 343 344 344 346 347 346 345 345 346 344 335 337 338 338 339 339 339 338 338 337 335 335 334 333 333 332 331 331 331 332 335 334 333 332 334 336 335 335 334 334 335 335 335 335 335 335 335 335 334 333 333
312 309 306 302 299 300 299 298 296 298 298 303 298 300 302 301 300 302 303 302 304 305 305 306 307 305 306 306 313 321 330 332 333 335 336 336 337 337 338 338 338 339 340 341 342 343 343 343 345 345 346 345 346 346 345 346 335 333 336 336 336 337 335 334 334 332 329 328 327 328 328 332 331 333 327 332 329 331 331 330 331 335 335 334 333 333 333 334 334 334 334 334 334 333 332 331 331
310 313 301 301 298 298 300 299 298 296 301 300 296 300 302 301 299 300 300 302 303 304 304 307 308 313 308 310 316 320 328 330 331 334 335 334 335 335 336 337 337 337 338 340 341 341 343 343 343 344 344 344 344 345 345 345 343 332 333 331 331 331 332 331 328 324 323 322 324 324 327 334 335 333 334 335 327 335 323 324 329 333 335 334 332 332 332 332 332 333 333 333 332 329 327 326 326
311 304 302 299 301 299 302 300 301 301 301 300 297 301 304 300 299 301 302 302 304 303 304 306 306 311 316 317 317 320 322 327 331 332 332 332 333 331 332 334 334 334 336 338 339 341 342 342 343 343 344 344 344 344 344 344 345 339 344 343 342 336 329 327 334 338 333 337 324 332 335 333 333 334 334 332 334 333 330 322 325 330 333 333 332 331 331 331 331 331 331 330 328 327 326 331 327
307 304 303 300 301 303 303 303 302 301 302 301 300 301 304 303 302 301 302 301 302 302 304 304 307 310 315 317 317 318 321 326 329 332 331 330 331 331 332 333 334 334 335 336 338 340 341 342 342 341 343 343 344 343 344 344 343 343 343 342 341 334 336 338 338 337 338 337 336 336 331 332 333 333 333 333 333 322 329 322 324 328 330 330 330 330 329 329 329 328 327 326 325 325 331 332 332
302 305 300 303 306 301 301 301 301 299 300 300 299 299 299 301 302 302 302 301 301 301 302 303 304 306 310 317 316 318 322 326 330 331 330 331 332 332 332 332 333 334 335 336 338 340 341 341 341 342 342 342 342 341 342 342 342 342 342 342 341 339 338 337 337 336 336 336 336 334 332 333 333 333 324 324 328 332 329 320 320 322 324 325 324 327 326 326 325 324 323 323 325 327 331 330 330
303 303 301 303 303 302 300 299 300 298 299 301 300 298 298 299 302 303 302 301 301 303 305 305 304 306 309 318 317 320 323 325 328 330 330 330 332 333 332 333 333 334 336 338 339 339 340 340 341 342 342 342 342 341 340 341 342 341 341 340 340 339 337 337 335 336 335 335 335 334 333 333 332 331 332 332 332 331 330 331 331 331 331 331 324 328 326 324 325 326 326 326 329 329 329 329 330
305 301 299 299 298 302 298 299 297 297 296 301 299 299 300 301 300 302 303 300 301 304 306 307 307 308 312 316 317 321 323 323 326 328 329 329 329 330 332 334 335 336 337 336 337 338 340 340 340 341 341 341 341 341 340 340 341 341 340 340 338 338 337 336 335 335 334 334 334 333 332 332 331 331 332 332 331 331 329 329 329 328 329 329 328 327 325 324 325 326 327 327 327 328 327 328 328
302 299 298 299 298 300 297 298 296 296 299 299 299 301 300 301 301 301 302 303 303 303 302 304 304 307 316 319 319 321 322 323 324 326 328 328 329 330 330 332 333 333 335 335 337 337 339 340 341 341 341 340 340 341 340 340 340 341 340 340 338 336 337 335 334 334 334 333 334 332 331 330 329 329 330 330 329 330 329 329 328 328 328 327 327 325 324 324 324 324 325 325 325 325 325 325 325
302 300 298 298 298 300 297 298 295 296 299 300 301 300 301 300 299 299 299 305 303 301 300 303 302 313 318 318 319 321 322 323 325 327 329 329 330 330 331 331 333 334 334 334 336 336 338 339 340 340 340 341 340 341 340 339 340 340 340 339 338 335 335 334 334 334 334 332 332 332 330 331 329 327 328 328 328 328 327 327 327 327 327 326 325 324 323 323 323 324 324 324 324 324 323 324 324
301 298 298 297 297 297 296 296 296 296 297 297 298 300 299 300 300 297 300 304 303 300 306 310 312 314 317 319 319 321 323 324 325 327 328 329 331 331 332 331 332 333 332 333 335 335 337 338 339 339 340 340 340 340 339 339 340 339 341 338 338 332 336 335 334 333 332 331 332 332 331 330 329 328 327 327 326 326 325 325 325 325 325 324 323 322 323 323 323 323 324 324 324 324 323 323 323
301 298 298 297 297 297 296 296 296 297 298 298 299 299 298 298 297 298 303 302 300 299 305 310 313 314 315 319 319 321 322 323 325 324 325 328 328 327 328 329 330 329 331 332 333 335 336 338 338 338 339 339 340 340 339 339 339 338 339 337 339 332 336 336 335 332 331 331 330 331 330 330 329 328 327 326 324 324 324 324 324 323 323 322 322 322 322 322 322 322 323 323 323 323 322 321 322
299 298 299 297 295 298 297 298 297 297 298 297 299 298 298 297 297 300 301 300 297 302 304 307 312 312 316 317 319 320 321 322 323 324 324 324 324 325 327 328 328 330 332 332 332 333 334 336 338 338 339 339 340 340 340 339 339 338 339 339 338 334 337 336 333 334 333 332 331 330 331 330 329 329 327 325 324 323 322 322 322 322 321 320 321 322 322 322 322 322 323 322 322 322 321 320 320
299 298 298 297 298 298 298 299 297 299 298 297 300 297 298 299 298 300 302 298 298 301 304 306 308 310 316 317 318 319 320 322 323 324 322 321 322 324 325 327 328 330 331 331 333 334 334 335 336 338 339 339 338 339 340 339 339 338 339 340 339 337 337 336 333 333 330 332 331 330 330 329 328 328 327 325 324 322 321 321 320 320 320 319 320 321 320 321 322 322 321 321 321 321 319 319 318
298 300 297 296 297 299 299 299 299 299 299 298 300 298 297 297 298 303 298 297 299 301 304 306 307 308 311 314 317 318 319 321 322 322 323 324 325 325 325 328 329 329 331 332 333 333 333 335 335 335 338 338 339 337 338 340 340 340 340 339 339 337 337 336 335 333 332 332 332 331 330 329 327 327 326 325 323 322 320 320 319 318 319 319 319 320 320 320 320 319 319 319 319 318 318 317 316
298 299 298 295 297 297 297 297 297 298 299 297 298 294 298 299 301 299 297 297 298 300 302 304 307 308 308 310 313 316 318 320 320 321 323 324 325 326 325 328 329 330 330 332 332 331 332 335 335 336 337 337 338 338 335 335 338 341 341 340 340 339 339 337 335 335 333 331 330 330 330 329 327 326 326 325 323 321 320 319 318 318 318 318 318 318 318 319 319 319 318 317 315 317 317 316 316
297 296 299 297 295 295 296 297 297 297 297 297 298 295 298 299 300 299 298 297 298 301 303 303 303 304 306 307 309 312 316 319 319 321 323 325 326 327 327 328 329 330 330 330 330 332 332 333 335 334 336 337 337 337 337 336 336 337 339 340 339 339 338 336 335 335 334 333 333 331 331 329 327 327 326 325 323 321 319 318 318 318 316 315 314 315 318 318 319 318 317 317 316 317 317 315 315
296 295 293 295 294 296 296 297 296 297 297 298 298 295 298 299 298 297 298 299 299 300 302 302 301 302 303 304 305 307 311 315 317 319 321 322 324 324 326 327 329 328 329 329 330 331 331 332 334 334 335 335 336 337 337 336 336 336 337 333 339 339 338 337 336 335 336 335 333 331 329 328 328 328 327 326 323 321 319 317 317 317 315 314 314 314 316 317 317 318 317 318 315 315 314 313 313
295 295 296 294 294 295 294 296 296 296 298 299 298 296 297 298 300 297 296 299 299 300 301 302 302 302 303 303 303 304 306 307 310 313 317 319 321 323 324 324 326 328 329 329 329 329 329 331 331 332 333 335 335 337 339 338 337 336 337 339 339 338 337 337 338 337 335 333 331 330 328 328 328 327 327 326 323 322 321 319 317 316 314 314 314 314 314 317 317 317 316 317 317 314 313 313 310
294 296 294 296 292 293 293 295 296 298 298 296 297 295 297 299 300 299 297 297 298 300 301 302 303 303 304 305 304 303 304 305 306 307 309 314 319 320 322 321 325 326 328 329 329 329 328 330 331 331 332 332 335 336 337 337 336 335 335 336 338 338 337 337 337 335 333 333 333 331 330 328 326 328 327 325 323 322 321 320 317 315 313 314 314 314 315 316 316 315 314 315 316 315 312 311 309
292 292 292 291 290 292 292 294 294 296 296 297 297 295 297 299 301 300 300 298 298 300 302 302 303 303 303 303 303 303 305 305 306 309 309 308 312 317 320 321 322 324 325 326 328 329 329 329 329 328 328 331 331 333 334 334 334 335 336 334 335 335 335 337 337 336 335 333 332 331 330 329 326 329 328 324 321 319 319 319 317 315 312 312 312 313 314 313 313 313 313 313 314 314 312 309 308
295 295 294 294 291 291 292 293 293 295 296 295 296 295 297 299 300 301 302 299 299 300 301 300 301 301 302 303 304 304 305 305 308 310 309 307 308 309 313 318 321 323 323 324 325 327 327 328 328 328 328 329 330 331 333 334 333 331 329 330 332 333 333 333 335 336 336 334 333 332 333 331 327 326 327 325 321 319 319 319 318 314 311 310 309 309 310 311 311 310 310 310 308 307 306 306 304
295 296 295 293 294 294 292 293 295 294 295 296 297 297 297 298 299 301 303 301 300 300 300 302 303 304 305 305 304 305 306 306 313 309 308 308 307 307 308 310 315 319 321 322 322 324 325 326 326 326 327 328 328 329 329 330 329 329 331 330 329 331 332 333 332 333 332 333 332 332 332 331 327 325 325 324 321 318 319 319 316 312 310 308 308 307 308 310 311 312 311 308 305 304 303 303 303
295 293 293 291 294 293 293 294 294 295 294 296 293 295 296 298 300 301 302 301 300 301 302 303 304 305 305 306 306 307 308 309 308 305 305 306 306 307 306 307 309 312 316 319 321 322 324 324 325 326 326 326 327 327 328 328 330 329 327 328 329 330 331 331 331 332 332 333 334 332 331 329 327 325 323 324 322 320 318 317 314 312 309 308 308 308 308 308 309 308 307 304 304 303 302 301 300
294 294 293 293 292 293 292 293 294 295 294 296 295 295 297 299 301 302 302 301 303 304 304 305 305 305 305 305 305 306 307 307 307 306 307 305 307 307 306 306 308 310 313 317 320 321 322 323 324 325 325 325 325 326 327 327 329 330 329 328 328 329 332 332 333 332 332 332 332 332 332 331 329 327 325 324 324 322 320 318 314 311 308 307 306 306 306 306 307 306 306 305 302 302 303 300 300
295 294 292 291 295 291 290 292 294 293 294 296 296 294 297 300 301 301 303 303 303 303 302 302 303 303 304 305 306 306 305 306 306 307 306 305 305 304 305 306 307 309 311 314 316 319 321 322 323 324 324 324 324 325 324 327 328 330 330 330 329 329 328 329 330 330 331 331 331 332 331 332 332 330 328 327 325 325 322 319 316 313 309 308 307 306 305 306 306 306 305 305 304 301 300 299 300
294 297 296 294 290 292 293 292 292 291 291 292 294 295 296 299 298 299 299 294 293 297 298 298 300 302 303 305 303 304 302 304 305 306 307 305 303 302 303 305 308 307 309 311 315 316 318 320 322 323 323 323 323 324 324 326 326 325 323 322 324 323 323 325 324 323 325 326 328 329 329 329 329 329 329 328 326 325 322 319 317 314 311 310 308 308 307 306 307 307 306 305 304 303 301 300 298
293 295 296 295 296 293 291 293 294 294 294 292 292 290 291 295 296 296 299 297 297 296 296 300 302 302 301 299 301 304 305 305 305 306 307 305 303 303 303 304 307 308 309 312 314 316 318 319 321 322 322 322 322 323 323 324 323 322 320 320 319 320 320 319 320 322 321 322 323 328 329 328 327 326 326 326 325 323 323 320 318 316 313 310 309 309 309 307 306 305 306 306 305 305 305 301 297
291 293 296 295 295 296 295 294 295 290 288 292 290 289 288 297 296 298 296 296 298 298 296 299 301 301 299 300 302 302 303 304 303 303 303 303 303 303 303 304 306 308 310 313 314 315 317 319 320 321 322 322 322 322 323 321 321 321 321 321 322 321 320 321 324 325 325 326 326 327 326 326 327 327 326 326 325 324 324 323 320 317 314 312 309 309 308 307 307 306 306 305 307 306 306 302 299
291 293 293 296 296 296 296 296 296 292 292 292 291 293 288 289 296 298 293 294 297 299 299 299 300 298 298 299 300 301 303 302 303 305 304 304 304 304 304 306 307 309 311 312 313 315 316 318 319 320 321 321 321 321 321 321 320 321 321 321 321 321 321 321 323 324 326 326 325 325 324 324 325 325 325 325 324 324 322 322 322 320 318 315 311 308 308 308 308 308 307 306 307 306 305 303 301
293 288 294 296 297 297 296 296 292 292 291 289 291 295 288 288 294 294 293 295 297 298 300 301 298 299 299 300 301 302 302 301 299 302 305 305 305 303 303 306 309 310 312 313 314 315 317 318 318 319 320 320 320 319 319 319 320 321 320 320 320 321 322 323 323 324 323 324 322 322 322 323 323 323 324 324 324 324 321 321 321 319 317 315 311 310 309 309 308 306 305 304 304 304 304 305 305
291 291 293 292 293 294 296 293 293 291 289 286 290 291 287 288 297 296 294 293 295 298 300 299 299 299 300 301 303 304 303 302 301 298 301 304 305 305 305 307 308 310 311 313 314 315 316 316 317 317 317 318 318 318 318 319 320 320 320 320 319 320 320 320 320 320 321 321 320 320 320 320 321 321 321 322 322 322 322 320 320 319 317 316 311 311 310 308 308 306 305 304 305 304 305 304 304
293 295 296 295 295 294 293 293 291 289 285 287 286 286 287 285 294 294 295 296 297 298 298 298 300 301 300 301 302 304 304 304 304 302 301 304 303 304 305 308 308 307 309 311 313 314 314 315 316 316 317 317 316 316 317 318 319 319 319 320 319 320 320 318 317 317 316 316 317 318 319 320 320 320 320 320 320 321 321 321 320 319 318 315 312 311 310 309 308 307 306 305 304 304 304 304 303
297 296 294 293 292 294 292 290 291 285 284 284 284 286 287 283 290 296 297 294 292 295 297 298 300 300 300 302 301 302 302 304 304 306 306 305 305 305 306 307 308 308 309 311 312 313 314 315 316 316 314 315 315 315 315 316 316 317 318 319 319 319 319 317 317 318 318 317 317 317 318 318 318 318 318 318 319 319 319 319 319 318 317 316 314 312 310 309 309 308 306 305 304 304 305 304 303
295 295 294 289 286 287 283 287 282 283 284 285 285 286 285 285 292 296 295 295 295 294 296 299 299 299 300 301 302 300 302 304 306 306 306 306 308 307 308 308 308 309 310 310 311 313 314 314 315 314 313 315 315 314 314 315 315 316 316 317 318 318 318 318 318 318 319 318 317 317 317 316 316 316 316 316 317 318 318 317 317 316 315 315 315 315 313 312 310 309 307 306 305 303 303 303 302
293 292 291 287 283 281 280 282 281 282 284 284 285 288 283 291 294 297 297 299 296 295 296 298 298 299 299 301 301 300 303 304 305 306 307 307 308 308 309 308 310 310 310 310 310 311 312 313 314 315 312 313 313 314 315 315 315 316 316 317 317 317 316 316 317 316 317 317 316 316 315 315 315 315 315 316 317 318 317 317 317 317 316 316 315 314 313 312 311 309 308 306 305 305 304 303 303
293 297 294 289 288 283 278 281 279 282 284 283 285 283 286 287 292 294 296 296 294 295 293 294 295 296 297 298 298 299 301 305 306 306 307 307 307 307 308 309 309 310 309 309 310 311 311 312 312 314 311 311 311 312 314 314 314 315 315 316 316 316 315 315 315 315 315 315 315 314 314 314 314 314 314 315 316 316 316 316 316 315 315 315 315 314 313 313 312 310 309 308 307 306 305 303 303
292 291 293 289 288 293 285 283 284 281 282 282 282 285 291 293 297 296 297 295 295 295 294 294 295 297 297 298 301 303 304 305 305 306 305 305 306 305 306 307 308 308 308 309 309 310 311 312 312 313 312 310 311 311 311 313 313 313 313 313 313 313 313 313 313 313 312 313 313 313 312 313 313 313 314 314 314 314 314 314 315 315 315 315 314 314 313 313 312 310 309 308 307 306 304 303 303
291 289 287 290 293 288 279 279 280 279 282 282 288 287 292 295 295 298 297 293 296 294 294 293 295 297 297 299 303 304 305 306 306 306 305 305 304 304 305 306 306 306 307 308 309 309 311 310 310 310 309 309 310 310 311 311 312 311 311 311 311 311 311 311 312 312 312 312 311 311 311 312 312 312 312 312 312 312 312 313 313 313 313 313 313 313 312 312 312 310 308 308 306 306 304 303 303
291 286 291 290 293 295 289 282 281 282 280 283 283 284 287 287 286 297 294 294 295 296 295 295 296 296 296 301 305 305 306 306 306 305 304 304 304 304 303 303 304 306 308 308 307 307 308 310 310 310 309 309 308 308 308 309 309 309 309 309 309 310 310 310 310 310 311 310 310 310 310 310 310 311 310 310 310 310 311 309 311 311 312 312 312 312 311 311 310 309 308 308 307 306 304 303 303
294 293 297 291 285 285 285 286 278 279 278 282 283 283 284 288 290 294 293 293 297 296 295 295 296 297 299 302 304 305 305 305 304 304 304 303 303 303 303 303 302 302 303 305 305 305 306 306 307 309 309 309 308 308 307 307 308 308 309 309 309 308 308 308 309 308 308 308 308 309 309 309 310 310 309 309 308 309 309 309 310 310 310 310 311 310 310 310 310 308 307 306 306 305 304 303 303
293 292 291 291 291 290 285 285 286 286 282 279 282 280 284 290 291 293 294 296 298 297 295 295 298 299 300 302 304 303 303 305 305 305 305 304 304 303 303 302 302 302 302 302 303 304 305 305 305 306 305 305 304 305 305 306 306 307 307 306 306 307 307 307 307 307 307 307 307 308 308 308 308 308 308 308 307 307 308 308 308 308 308 308 308 308 308 308 308 307 305 305 305 305 303 302 301
288 289 288 292 288 291 291 287 285 285 282 281 282 281 285 293 294 294 295 296 295 295 296 298 299 300 300 302 304 304 305 306 306 305 304 304 303 302 301 300 300 299 299 300 302 303 304 303 304 305 305 304 305 305 305 306 306 305 305 305 306 305 305 305 305 305 305 306 306 306 306 307 307 306 306 306 305 306 307 307 307 306 306 306 306 306 307 307 306 305 305 305 305 304 302 301 300
291 290 288 291 286 285 283 282 284 282 284 279 278 280 288 296 290 294 295 296 295 294 296 298 298 298 298 300 301 304 305 306 306 305 304 304 303 302 300 298 297 298 298 298 300 301 301 303 303 304 304 305 304 304 305 304 304 305 304 305 304 304 304 304 304 304 304 304 304 305 305 304 304 304 304 304 304 305 305 305 305 305 305 305 305 305 306 306 305 305 304 304 304 303 301 299 298
Wind_Speed
3 1 1 2 2 2 3 2 5 2 3 2 4 4 5 1 1 5 5 6 7 4 3 4 10 10 2 0 3 4 3 2 4 3 4 3 1 8 6 7 11 11 10 9 10 11 11 9 11 12 13 13 13 12 11 11 11 10 10 11 10 10 9 8 13 12 11 12 13 14 14 15 14 13 13 14 14 14 14 13 14 15 16 16 16 16 16 16 16 16 16 16 16 17 16 16 16
2 2 2 3 1 1 3 2 2 2 1 4 2 1 6 3 3 7 10 7 4 7 4 7 9 4 3 1 2 1 3 4 5 4 3 2 6 8 5 9 11 12 10 8 10 10 10 11 10 12 13 13 13 12 11 11 11 11 10 9 10 10 9 9 13 12 12 13 12 12 15 14 14 14 12 13 13 13 13 13 12 13 14 15 15 15 16 15 16 16 16 16 16 16 16 17 17
2 2 3 2 2 2 3 2 4 2 4 4 5 2 3 6 6 7 7 5 6 8 7 6 6 5 2 2 5 5 4 1 2 3 4 5 10 7 6 9 10 10 11 8 9 10 9 11 10 12 13 13 13 12 11 11 11 10 10 10 9 9 9 9 11 13 12 13 12 14 14 14 14 13 13 13 12 12 11 11 11 12 13 13 13 16 16 16 16 16 15 16 15 16 16 16 17
2 2 3 1 3 2 2 3 2 4 4 2 4 5 7 6 6 8 7 5 7 8 7 8 9 1 3 5 2 1 2 3 2 6 4 7 3 9 9 10 10 9 8 7 8 9 9 11 9 11 12 13 13 12 11 10 10 10 10 9 10 9 9 9 11 12 12 13 12 14 13 13 13 13 12 13 13 12 12 12 12 12 12 13 14 15 15 16 16 15 15 15 15 15 16 16 16
1 1 2 3 3 3 1 1 0 2 4 4 2 7 8 5 8 8 6 7 6 3 6 7 3 2 3 3 1 3 4 5 4 3 5 7 5 9 10 10 10 9 8 8 8 8 10 11 9 10 12 13 12 11 11 10 10 10 10 9 9 9 9 9 10 13 12 13 13 13 14 12 12 12 13 12 12 11 11 12 14 14 13 13 13 15 15 16 16 15 15 15 15 16 15 15 16
2 0 3 2 2 3 2 4 4 4 4 0 2 5 9 5 10 9 10 7 3 1 2 9 2 5 4 2 1 1 3 2 6 4 7 8 8 10 11 9 9 9 8 8 7 8 10 9 9 10 12 13 12 11 11 10 10 10 10 9 9 9 9 9 8 11 14 14 12 14 13 12 12 12 12 12 12 12 11 11 11 12 14 14 13 14 15 15 15 15 15 15 15 16 15 15 16
1 2 2 4 3 2 4 3 2 2 3 3 2 3 9 7 9 13 10 7 2 0 1 3 1 4 4 3 3 1 2 3 5 5 4 10 10 10 12 10 9 10 9 8 7 8 12 9 9 9 10 11 12 12 11 10 10 10 10 9 9 9 9 9 10 10 10 12 13 13 12 10 10 11 11 11 12 10 11 11 11 12 12 14 14 13 14 14 15 14 14 14 14 15 16 16 16
2 3 2 4 2 2 3 1 2 2 3 2 3 1 6 8 10 11 12 9 8 6 6 1 3 5 4 1 1 5 2 2 4 4 4 10 11 11 11 11 10 10 10 8 7 7 10 8 8 9 10 11 12 11 11 10 10 10 10 10 9 9 9 9 10 10 10 10 11 11 10 10 9 9 10 10 11 11 11 11 12 12 12 12 13 14 14 14 14 14 14 14 14 14 15 15 16
2 1 1 2 4 1 2 3 1 2 1 2 2 3 3 5 8 10 11 1 6 0 8 6 4 5 4 4 0 5 2 4 2 1 5 12 11 11 9 11 10 9 9 8 7 9 11 7 7 8 9 10 11 11 11 11 10 10 10 10 9 10 9 9 9 9 9 9 9 10 10 10 10 9 10 10 11 11 11 10 10 11 11 12 12 13 13 13 12 13 14 14 14 14 14 15 15
2 3 4 0 0 4 1 3 4 3 1 2 1 3 5 6 7 5 10 7 5 7 4 3 3 3 3 3 3 4 4 5 4 8 10 11 11 11 11 10 10 11 10 9 8 8 9 8 6 8 8 8 9 11 11 11 10 10 10 10 10 10 10 10 10 10 10 10 9 10 11 9 9 9 8 11 12 10 10 10 10 11 12 12 11 11 11 11 12 12 13 13 13 13 14 14 14
3 2 3 4 4 3 5 4 2 3 2 1 3 2 3 7 7 7 4 6 2 4 6 3 4 4 4 2 1 4 4 3 7 13 12 11 11 12 10 9 9 10 9 9 8 8 9 11 8 7 8 8 8 9 9 9 10 10 10 10 10 10 10 10 10 10 10 9 10 10 10 10 9 9 7 11 12 10 9 9 10 10 11 10 11 12 11 12 12 12 13 13 12 13 13 14 14
3 2 3 5 4 3 3 3 3 3 1 1 4 5 3 9 6 8 6 8 5 5 6 9 2 7 4 1 3 4 4 5 8 12 11 11 10 11 10 8 9 9 9 9 9 8 8 9 10 8 7 7 7 7 9 8 8 9 9 10 10 10 10 10 10 10 10 10 10 9 10 10 9 8 7 8 9 9 9 9 9 10 11 12 12 12 12 12 12 12 12 12 13 12 13 14 13
1 0 4 4 1 1 3 2 3 1 2 5 6 4 5 8 9 8 8 3 7 7 5 10 2 3 4 3 4 4 7 8 9 11 11 11 10 10 9 8 9 9 10 10 10 9 9 9 8 10 9 7 7 7 8 8 8 8 9 9 9 10 10 10 10 10 10 10 10 9 9 9 8 7 5 7 7 11 10 7 8 11 11 10 10 11 11 11 11 11 11 12 12 12 13 13 13
2 2 3 3 1 1 3 2 2 4 4 5 3 6 8 6 5 3 7 7 8 7 4 5 3 3 1 0 4 5 7 10 11 11 10 11 10 10 10 8 9 8 9 10 10 9 9 8 7 9 10 9 9 8 7 8 8 8 8 8 8 8 8 9 8 8 8 9 9 9 8 7 6 6 6 9 7 9 9 6 7 9 11 11 11 11 11 11 11 12 12 12 12 12 12 12 12
1 1 3 3 3 2 1 4 5 5 4 8 5 9 7 2 1 3 9 8 8 6 3 2 1 3 3 8 5 7 10 11 12 10 10 10 11 9 9 8 9 8 9 10 9 9 9 8 8 8 9 9 9 8 8 8 8 9 9 8 8 8 8 8 8 9 9 10 10 9 9 9 9 7 9 9 8 9 9 7 6 8 11 11 10 10 11 11 11 11 11 11 11 12 12 12 11
2 3 2 5 4 4 4 2 1 2 3 6 5 1 8 3 2 5 2 4 4 3 3 6 2 2 3 3 6 7 11 12 11 10 11 11 10 9 9 8 8 9 8 10 10 9 9 9 8 7 8 8 8 7 8 9 9 9 9 9 8 8 8 9 10 10 10 10 10 10 9 8 7 6 7 8 7 8 7 7 6 6 8 10 10 10 10 10 11 11 11 11 12 12 12 11 11
1 2 3 2 5 5 5 3 7 4 5 4 6 8 11 7 2 2 3 3 5 6 5 1 4 1 2 4 4 4 7 9 10 12 12 10 9 8 7 7 7 8 7 10 9 9 10 9 9 7 8 9 7 7 7 8 9 10 8 8 9 9 9 10 10 10 9 9 9 9 7 6 6 5 5 6 6 6 6 6 5 6 8 9 10 9 9 9 10 10 11 11 11 11 12 13 10
2 5 4 5 2 5 7 6 7 3 7 8 9 11 9 8 5 4 3 3 1 3 5 2 0 4 2 4 2 1 3 8 11 14 13 12 9 10 9 8 9 9 8 8 10 10 10 10 10 10 8 9 8 6 5 6 8 9 9 9 8 8 8 9 8 8 8 7 7 7 5 5 5 5 5 6 6 7 6 7 7 7 7 8 8 9 9 9 9 10 9 10 10 10 7 7 7
4 2 3 5 3 2 4 4 5 3 5 10 9 8 6 7 12 6 7 7 6 5 6 3 4 5 4 4 2 4 6 10 12 15 16 16 13 14 11 9 10 10 9 9 9 12 10 9 10 11 9 9 9 8 6 6 8 8 8 8 7 8 8 8 7 7 6 7 6 5 4 4 5 5 4 4 4 8 8 9 8 8 9 10 9 8 8 9 8 8 9 9 7 5 5 7 6
0 4 6 3 3 3 2 2 6 1 3 11 9 7 4 4 5 6 5 7 4 8 8 6 8 10 10 7 4 6 8 12 13 15 16 17 16 15 13 13 12 12 11 9 10 9 10 9 11 10 10 10 9 8 7 7 7 8 7 7 7 7 8 7 6 6 6 6 5 4 4 5 5 5 8 8 7 7 6 10 10 11 11 11 12 8 10 10 7 6 5 5 5 3 4 5 6
3 3 5 3 5 5 3 2 2 2 2 7 8 6 4 4 3 8 6 6 8 8 8 10 12 11 11 8 8 10 12 13 13 15 16 16 17 14 14 13 12 11 10 10 9 10 11 11 10 10 10 10 10 8 8 8 8 8 7 7 7 7 7 7 6 6 5 6 5 3 4 5 5 5 6 6 6 6 6 6 6 6 6 6 5 5 4 4 5 5 4 3 3 3 4 4 4
4 1 5 1 2 3 3 3 3 2 2 6 9 12 8 6 2 6 9 8 5 8 10 11 7 7 11 11 10 12 14 15 15 16 17 17 18 17 14 12 10 9 9 10 12 11 12 11 10 9 10 11 10 9 9 7 8 8 8 7 7 6 7 7 7 6 6 6 5 4 5 5 5 5 5 5 5 5 6 5 5 5 5 5 5 4 4 5 4 4 3 2 3 2 2 3 3
6 1 1 1 2 3 2 4 2 3 5 8 10 5 7 9 5 3 7 11 3 4 5 3 2 4 6 9 12 13 15 16 17 18 18 17 17 17 15 13 12 11 10 11 11 11 11 12 11 10 10 10 11 11 9 8 9 9 8 8 8 8 7 7 7 6 6 7 6 6 5 5 5 5 5 5 5 5 5 5 4 5 5 4 3 3 3 4 3 3 3 2 2 2 2 2 2
4 4 3 3 2 5 1 3 3 1 6 7 3 6 7 8 7 3 7 8 5 4 3 2 2 4 9 12 12 15 17 17 18 18 17 18 18 18 15 14 12 10 10 12 11 11 10 12 12 11 11 11 10 10 10 8 8 9 7 7 8 8 8 7 6 6 6 6 7 6 5 5 5 5 5 5 5 4 5 4 4 4 4 3 3 3 4 3 3 3 3 3 3 3 3 3 3
3 3 3 2 1 3 2 3 4 2 2 3 4 8 2 3 0 4 8 10 5 3 2 3 4 5 6 9 12 11 12 12 12 12 11 11 12 13 13 12 12 11 12 13 12 12 13 12 13 14 12 13 11 10 11 9 8 8 7 8 9 8 8 8 7 6 6 6 7 7 6 5 5 5 6 5 5 5 4 5 4 4 4 3 3 3 4 4 3 3 4 4 3 3 3 3 3
2 3 5 4 4 5 4 6 3 3 2 3 7 4 3 3 1 6 7 3 2 2 3 3 3 5 7 9 11 11 12 14 12 12 14 11 10 13 15 14 12 14 14 13 13 12 12 13 14 15 13 12 10 11 10 10 10 9 8 8 7 8 9 9 9 8 6 6 6 8 7 5 5 6 6 6 6 6 5 5 5 5 5 4 4 4 4 4 4 4 4 4 4 3 3 3 3
5 7 5 5 2 3 1 2 4 2 3 2 5 6 3 2 1 5 4 2 1 3 4 2 4 7 7 7 8 9 10 12 14 10 9 11 12 13 14 15 15 14 12 13 13 12 11 13 14 14 14 9 11 12 12 11 10 10 10 9 7 8 7 7 9 9 9 8 8 8 9 6 6 6 6 7 6 6 6 6 6 5 5 5 5 5 4 4 4 4 4 4 4 4 3 3 3
7 11 10 8 5 6 4 6 4 4 5 2 3 4 2 2 2 5 4 2 2 6 5 5 5 6 6 7 7 7 7 7 7 10 14 15 12 13 13 13 15 13 14 14 11 10 12 14 14 14 14 12 12 13 11 11 10 10 10 9 10 10 11 9 8 8 9 9 9 9 8 7 6 6 6 7 7 7 6 6 6 6 6 5 5 5 5 4 4 3 3 2 3 4 4 4 2
7 3 5 2 1 4 3 4 3 4 3 2 1 4 4 5 8 4 4 2 2 5 5 5 7 6 4 5 5 6 8 7 8 10 13 13 11 10 14 13 12 13 10 11 12 12 14 13 13 14 14 13 14 15 12 12 11 9 11 10 7 8 9 10 10 9 9 9 9 9 8 9 7 7 7 7 7 7 7 7 6 6 6 6 6 6 6 5 4 4 4 3 4 4 4 4 3
3 2 5 5 3 2 1 1 1 2 2 1 2 6 7 13 13 5 3 1 2 3 5 6 5 5 4 4 6 6 6 7 10 12 10 11 11 12 12 11 12 11 9 9 12 14 12 10 10 11 13 15 15 14 13 12 12 11 10 10 8 7 8 9 10 11 9 8 8 9 9 10 9 8 8 8 7 7 7 7 7 7 6 6 6 6 6 6 6 6 6 5 5 5 6 5 6
5 2 3 3 6 4 3 2 4 3 0 1 2 7 3 2 3 2 2 1 3 5 5 5 4 5 5 5 5 7 8 10 11 11 10 10 9 9 11 10 11 11 8 9 13 13 13 12 10 10 11 15 14 15 13 12 11 11 10 11 10 9 7 9 9 10 10 10 10 9 10 9 10 10 9 8 9 8 8 7 8 8 7 7 6 7 7 7 7 8 7 8 6 6 6 5 6
2 7 5 1 6 3 2 4 3 4 2 1 4 6 9 3 4 3 2 2 4 6 5 4 4 5 5 5 7 7 8 8 10 10 11 11 10 9 10 11 11 12 13 11 10 10 13 13 12 13 12 14 14 13 13 13 12 11 11 8 8 10 10 10 8 9 11 12 10 9 9 8 10 10 10 9 8 8 8 8 8 7 8 7 7 8 8 9 8 8 8 9 8 8 7 7 5
0 3 4 6 2 3 3 1 2 4 1 2 6 4 1 3 3 2 1 2 4 6 6 6 6 6 6 6 6 6 6 8 9 12 13 11 11 11 10 11 12 13 12 11 11 12 12 14 13 14 14 14 13 13 13 13 12 12 10 7 9 9 8 7 7 7 7 7 5 6 8 8 10 9 10 10 9 9 8 8 8 8 8 7 7 7 7 7 7 6 7 8 8 8 8 8 7
6 1 2 1 7 6 5 4 1 3 3 9 3 4 7 2 2 1 3 1 0 3 4 5 5 5 5 4 5 6 7 8 10 11 13 13 11 13 11 10 12 12 12 12 12 12 12 12 12 13 13 14 13 13 12 11 12 12 10 10 8 8 8 8 5 5 6 5 6 7 6 7 9 10 10 9 8 8 8 7 5 6 7 7 7 7 7 7 7 7 7 6 7 6 8 9 9
8 6 3 4 2 3 1 5 2 1 0 6 5 8 12 7 3 3 5 2 2 6 6 5 5 5 4 5 6 7 7 8 11 9 9 11 12 11 11 11 11 11 10 12 12 12 10 10 10 12 13 13 13 13 13 12 8 7 7 9 11 12 9 8 8 6 6 8 10 11 9 8 9 11 10 9 7 6 6 6 6 7 7 7 6 7 7 7 6 7 8 7 6 5 4 4 6
12 13 5 3 7 6 5 2 2 3 8 8 9 10 11 12 12 9 6 4 4 7 6 6 7 7 7 7 7 6 7 10 8 4 5 5 7 8 9 9 9 10 10 10 12 11 12 11 10 11 13 13 12 12 11 11 10 9 7 6 7 9 9 8 8 7 7 8 9 10 11 10 9 8 9 8 6 6 6 7 8 7 7 6 6 7 7 8 9 7 7 7 6 3 1 1 2
5 4 3 3 5 2 2 2 3 2 2 10 9 10 10 10 10 11 8 3 6 8 10 9 8 7 7 7 8 9 9 11 2 2 4 6 7 7 7 8 9 10 10 11 12 13 13 13 12 13 12 13 12 11 11 11 12 12 10 9 8 9 9 9 8 7 6 6 8 9 8 7 6 7 6 7 8 8 7 7 6 6 7 7 6 7 7 6 5 5 5 4 6 5 4 3 4
8 6 5 3 3 4 2 2 2 0 4 2 2 5 12 14 12 12 11 7 12 11 11 11 11 9 7 8 8 9 10 4 3 5 6 6 6 6 6 6 8 11 12 13 14 14 13 13 13 12 10 12 13 13 11 10 9 12 12 12 10 6 6 8 10 10 10 7 7 7 7 8 8 8 8 9 9 9 7 5 6 7 8 7 6 5 5 5 5 6 4 3 4 7 5 6 6
2 5 4 3 4 2 2 2 1 1 1 4 2 6 10 11 10 10 10 11 10 9 10 11 8 8 7 6 8 8 6 8 5 7 5 5 6 6 6 7 8 10 9 12 12 11 12 12 12 11 10 10 12 13 12 13 11 9 11 10 9 8 7 7 8 9 9 9 9 8 7 7 8 8 9 9 9 9 10 8 7 6 8 8 7 8 8 9 9 10 10 8 6 5 5 3 7
4 4 5 6 3 6 4 2 2 2 2 2 2 6 9 10 9 11 11 11 8 5 7 9 6 9 10 9 6 6 8 8 9 6 6 6 5 6 6 7 8 7 7 8 10 12 10 10 11 11 11 11 10 12 11 12 11 8 8 7 7 8 6 6 8 8 9 9 10 8 8 8 9 9 9 10 9 9 8 10 10 9 9 10 9 8 8 8 9 9 8 8 6 7 5 6 9
2 3 3 3 3 2 2 4 2 1 1 1 4 7 11 7 8 8 5 1 5 9 8 10 9 10 9 5 7 8 10 8 9 9 7 5 6 7 8 8 6 8 8 8 9 10 7 11 11 11 10 10 9 10 12 11 8 7 5 3 2 2 0 4 5 5 7 6 7 8 8 8 8 7 8 10 9 10 11 9 9 8 7 6 6 7 8 11 11 10 11 9 10 10 9 7 7
2 4 3 2 4 7 3 6 6 3 3 4 2 4 7 1 4 7 1 2 5 3 4 9 7 5 5 8 10 8 10 10 11 10 4 4 4 3 4 5 7 7 7 7 7 8 8 8 9 10 8 8 10 11 12 11 9 9 7 8 8 7 7 6 8 8 6 7 8 8 7 7 7 7 6 6 6 6 7 7 8 8 9 8 10 10 10 8 10 9 10 12 13 12 9 9 6
3 4 4 2 5 7 8 7 3 3 3 2 3 7 5 2 2 2 1 4 8 3 6 9 5 4 4 6 5 5 6 5 6 7 6 6 6 5 5 6 7 8 7 5 6 7 8 8 9 9 8 8 9 10 12 10 10 10 12 12 11 10 10 9 9 9 9 9 8 9 7 7 8 8 8 7 7 8 8 9 9 9 9 8 9 9 9 9 9 10 9 10 12 11 8 10 10
6 2 3 6 9 10 8 8 3 2 3 1 0 1 6 7 6 2 2 5 8 7 7 9 5 3 5 4 4 6 5 4 4 5 4 4 4 5 6 5 6 6 5 6 6 6 8 8 9 9 7 7 8 9 12 10 10 10 11 11 9 10 10 9 9 10 10 7 7 8 6 6 7 8 7 7 8 7 7 8 9 8 8 8 8 7 7 9 9 9 10 11 10 8 10 9 9
1 1 2 5 4 4 7 5 3 2 1 3 4 0 3 7 2 2 2 4 7 9 7 4 2 3 3 5 5 6 6 5 6 5 3 2 3 4 3 3 4 5 5 6 6 6 6 7 7 7 7 7 8 10 10 11 10 10 10 9 9 8 9 8 7 7 7 7 8 6 7 7 8 8 9 9 8 8 7 7 8 9 9 9 8 8 8 7 9 8 7 6 8 9 11 12 10
1 4 6 7 6 6 3 3 3 2 2 6 5 1 4 11 3 4 2 3 7 8 8 3 2 2 3 4 4 5 4 3 4 5 3 2 0 2 2 2 5 4 4 4 5 5 6 6 8 9 9 8 8 9 9 10 10 8 9 9 10 9 7 6 5 6 6 6 7 8 7 7 8 8 8 9 10 9 8 7 7 9 8 9 8 7 8 10 9 9 11 11 12 13 10 10 12
11 7 11 7 6 3 2 4 1 1 4 4 5 2 3 5 2 5 5 6 6 5 3 1 1 2 2 2 3 3 3 2 1 2 2 1 1 2 3 5 5 4 3 4 5 6 8 9 9 10 9 7 7 9 9 10 9 8 8 9 10 9 8 7 6 6 5 5 6 7 7 7 7 7 7 7 9 10 10 10 8 8 8 7 8 8 9 8 8 10 10 12 13 11 10 11 12
7 4 6 9 4 1 2 2 1 3 6 3 3 0 3 7 3 4 4 3 3 2 2 2 1 1 2 2 2 2 2 1 1 3 3 3 4 3 4 5 5 5 5 6 7 8 8 8 8 9 9 8 8 8 9 9 8 8 8 9 9 9 8 6 7 8 7 7 8 8 7 7 7 7 7 7 7 8 9 9 9 8 7 7 8 8 7 7 7 7 8 8 10 12 11 10 11
1 7 9 7 3 2 3 2 4 7 5 2 2 2 2 13 11 4 3 6 5 7 5 4 2 3 2 1 2 2 2 2 2 3 3 3 4 5 6 6 6 6 6 7 7 7 7 7 9 9 9 9 8 8 9 8 8 8 8 8 7 7 7 8 8 8 7 8 7 8 8 7 7 8 8 8 8 9 8 9 9 8 7 7 7 8 9 9 7 7 8 9 9 9 10 10 11
5 11 10 7 4 4 5 2 2 4 1 1 1 1 6 7 7 13 16 9 3 4 7 6 5 6 4 3 3 3 3 2 1 2 3 3 4 4 5 6 6 6 7 7 6 6 6 6 8 8 8 7 7 8 8 8 8 8 7 7 7 6 6 7 7 7 7 6 4 5 5 5 5 5 5 6 6 6 7 8 9 9 9 8 8 8 8 8 9 10 10 9 9 9 9 11 12
7 4 6 6 7 4 6 4 6 4 1 2 2 1 4 2 1 3 6 5 2 2 3 3 4 5 5 4 5 5 4 1 1 3 3 4 4 4 4 5 5 6 7 6 6 6 6 6 6 7 7 6 6 7 6 7 6 7 6 6 5 5 5 5 5 5 4 4 4 4 4 4 5 5 5 6 6 6 6 6 7 9 9 9 9 8 8 8 8 8 8 11 11 10 9 9 9
1 1 3 2 4 1 1 1 0 2 2 1 2 5 3 5 6 7 5 6 5 5 5 3 7 4 3 4 4 3 2 2 2 4 4 3 3 3 3 3 4 4 5 5 6 6 5 5 5 5 6 7 6 6 6 6 5 5 5 5 5 5 5 4 4 4 3 3 3 3 4 4 4 4 5 5 6 6 7 7 7 7 8 10 10 10 10 9 9 8 9 10 12 7 8 11 9
5 4 3 1 4 10 6 2 1 1 1 4 3 5 6 5 9 13 2 1 4 3 4 2 6 2 1 4 3 3 3 3 3 4 3 4 2 1 1 2 3 3 4 5 5 5 6 6 6 6 5 5 6 5 5 4 3 4 4 4 5 5 6 6 4 3 3 2 3 3 4 4 4 5 5 6 8 9 9 9 9 9 10 9 10 10 10 10 8 7 8 9 10 8 9 11 8
7 3 5 3 2 2 2 2 1 0 3 2 3 6 7 1 6 3 2 4 9 6 7 6 3 1 4 4 4 4 5 4 3 3 3 2 2 2 2 1 1 3 4 4 5 3 3 4 5 7 6 6 4 4 4 4 4 4 4 5 5 5 4 4 3 2 2 2 2 3 3 3 4 4 5 5 7 9 10 10 9 9 9 9 9 9 9 9 9 9 9 9 9 9 9 9 9
2 0 5 4 3 4 1 2 1 3 2 3 4 3 5 6 8 1 1 6 10 7 6 4 5 5 7 6 6 5 3 4 4 5 4 3 3 3 2 2 1 0 0 1 3 3 3 3 3 3 4 3 3 3 3 3 3 3 3 3 4 4 4 3 2 1 1 2 3 3 3 4 5 5 5 6 7 9 9 9 8 8 8 9 9 9 9 9 9 9 7 7 7 7 8 9 9
3 2 3 2 2 1 5 3 0 0 3 0 2 2 5 8 7 5 11 8 9 6 6 7 9 8 6 6 6 6 6 6 6 6 5 5 4 4 4 4 3 3 2 2 2 2 4 3 3 3 3 3 3 4 4 4 4 3 3 2 3 3 2 2 2 2 2 2 3 3 3 5 5 5 5 5 7 9 9 9 8 7 8 8 8 9 9 9 9 8 6 7 7 8 10 9 8
4 5 5 2 2 2 2 2 1 2 2 3 3 4 3 3 6 8 12 11 3 3 6 4 4 4 3 5 6 7 7 7 7 6 6 6 5 5 4 3 2 1 1 1 2 3 4 3 4 5 6 6 5 4 5 4 4 4 4 4 3 3 2 2 2 2 1 1 1 2 3 4 4 4 5 5 8 9 9 8 8 7 8 8 8 8 8 8 8 8 7 8 8 7 8 7 7
4 8 9 9 6 4 4 4 3 0 2 3 3 6 4 2 3 9 9 2 1 4 2 4 5 6 6 4 4 5 6 6 7 6 6 5 5 5 4 3 2 2 2 2 2 3 4 5 5 5 5 5 6 6 5 5 4 4 4 3 3 2 2 1 1 1 0 1 2 2 3 3 4 4 4 6 8 8 8 7 7 7 8 8 8 9 8 8 9 9 8 6 7 7 8 8 7
Wind_Direction
310 301 247 226 234 242 265 33 229 122 236 113 130 208 117 45 21 158 142 141 155 128 104 138 136 148 173 217 28 59 35 225 20 299 29 55 77 155 122 149 141 144 146 148 142 145 149 145 134 125 123 119 115 112 109 105 102 102 98 91 86 86 85 83 82 84 96 100 99 103 98 98 95 94 91 88 86 88 88 87 83 81 83 86 88 86 85 83 83 83 82 83 82 81 80 80 81
298 295 247 232 248 264 183 323 272 166 115 145 125 283 118 146 189 179 152 165 70 143 136 142 153 110 47 338 90 118 155 41 21 41 80 67 136 145 119 160 149 148 147 149 147 147 144 139 131 130 126 123 119 115 113 113 110 107 103 100 95 93 85 75 84 83 92 97 98 100 103 102 96 91 96 91 84 84 81 78 86 93 92 88 91 95 90 92 91 88 88 86 85 84 84 84 84
333 287 172 215 161 299 115 247 230 187 188 173 139 177 107 169 185 151 136 72 99 106 130 125 134 170 158 160 173 234 77 28 120 82 80 131 148 161 156 158 154 150 149 149 148 146 145 136 135 133 129 126 120 118 117 113 110 108 100 93 91 86 78 76 80 82 93 100 97 96 101 101 101 97 86 89 92 82 85 86 75 73 83 87 90 85 85 88 91 90 88 88 85 85 85 84 85
272 323 264 225 183 240 219 198 269 194 203 79 143 147 181 181 148 124 70 89 107 130 136 141 168 69 277 214 41 303 167 144 154 135 135 167 153 141 149 161 156 153 149 149 153 149 146 135 139 135 131 127 123 119 119 114 113 109 103 100 96 89 81 77 84 89 95 100 94 95 97 100 98 101 103 93 93 90 84 90 85 77 78 92 96 95 93 90 90 91 89 86 85 83 84 86 86
236 55 293 254 261 171 260 41 1 243 211 171 115 144 188 195 128 119 100 109 118 136 168 150 161 88 350 333 33 290 77 90 151 165 123 148 112 140 152 158 162 152 157 155 154 149 137 134 138 135 135 130 125 122 121 117 112 108 105 101 96 92 86 79 87 95 95 97 96 97 95 96 100 99 93 94 89 90 86 82 93 90 84 84 84 93 95 94 93 93 91 88 87 84 85 87 87
236 210 39 272 271 30 163 186 179 214 29 100 127 149 179 171 140 126 126 128 113 4 10 166 323 150 185 171 354 354 135 168 124 157 156 156 151 145 155 159 161 159 157 157 157 153 143 136 139 141 139 133 128 127 122 121 117 115 112 105 101 95 90 86 83 100 101 97 93 92 94 99 101 98 93 93 96 88 88 86 77 82 98 89 91 97 99 97 93 89 88 87 87 86 86 88 88
238 179 97 100 116 249 253 208 173 189 97 330 50 111 172 151 137 131 138 138 148 59 275 179 172 129 210 130 172 209 62 99 167 129 193 142 147 154 157 165 163 163 158 162 163 152 143 139 145 145 139 136 133 130 128 123 122 116 114 111 106 102 98 93 86 83 92 99 97 93 95 93 101 105 105 102 94 95 87 86 80 80 81 93 99 98 94 93 93 90 90 92 90 88 88 90 91
94 264 58 222 110 262 201 194 158 241 99 293 16 51 142 146 146 151 155 165 165 193 171 161 223 257 54 294 251 108 132 241 43 79 113 152 147 154 166 164 167 163 164 161 163 149 132 147 147 143 142 141 138 135 131 129 127 124 119 117 116 111 106 99 98 91 94 97 101 99 99 105 103 111 112 105 101 96 95 88 88 88 86 84 81 81 86 91 94 93 92 90 92 91 90 92 92
25 354 271 207 175 54 163 190 103 45 53 216 222 287 359 155 171 156 158 132 115 161 153 171 175 214 117 160 168 110 159 132 107 73 181 152 153 157 166 170 169 164 163 165 163 152 155 144 150 145 145 147 144 139 136 133 131 130 126 124 120 117 114 110 104 103 104 103 101 103 104 110 119 114 114 111 101 94 90 91 95 98 92 84 83 88 91 92 94 96 93 94 96 96 95 95 95
109 286 173 210 61 185 165 144 205 140 157 137 300 151 174 162 175 195 152 148 144 151 116 92 165 274 131 170 144 175 141 130 123 163 171 156 153 161 166 171 174 169 163 169 169 164 152 145 148 146 148 147 147 143 139 137 136 132 131 126 124 120 120 118 112 111 108 108 105 107 107 107 122 117 119 111 105 103 92 92 94 92 89 91 93 94 94 92 92 96 97 97 98 95 95 97 96
196 69 358 191 193 178 209 144 187 145 186 134 225 185 171 164 172 164 154 118 103 151 124 176 174 188 188 131 8 65 87 123 167 164 165 159 158 164 166 172 175 177 167 171 171 167 155 163 144 149 147 148 147 145 140 140 139 136 132 128 126 127 123 120 117 114 113 112 114 112 107 109 123 118 119 108 105 98 99 104 100 98 96 94 89 86 91 93 95 97 99 99 100 101 102 101 99
179 198 185 205 196 219 148 146 140 113 156 211 143 156 177 166 174 160 157 156 157 151 164 192 135 144 179 145 155 127 134 165 179 158 162 159 163 165 165 168 177 175 170 173 171 173 166 160 165 150 147 146 146 143 143 143 136 135 133 130 129 126 124 124 122 120 116 116 115 115 114 115 118 121 108 91 101 108 100 90 96 98 93 90 96 97 94 94 96 95 98 101 101 104 104 103 102
292 316 189 214 114 255 84 156 123 42 153 192 160 158 156 165 181 182 159 115 159 156 182 195 49 233 184 181 65 124 172 170 163 154 161 161 160 160 163 172 180 176 169 175 180 174 172 172 165 169 153 143 144 145 147 138 134 132 132 132 131 128 127 125 123 121 120 121 119 112 106 107 107 108 85 39 74 99 101 96 97 101 100 99 94 93 91 95 98 100 101 103 105 106 107 106 104
245 216 211 193 349 127 167 87 98 186 182 122 81 129 173 179 197 169 147 161 173 185 58 148 173 205 115 189 151 170 172 153 159 156 159 157 157 161 163 174 177 176 181 182 182 175 177 175 175 170 161 172 162 149 141 138 136 133 129 126 127 127 125 122 119 117 112 102 93 90 92 91 94 91 61 45 64 100 99 84 93 105 100 98 97 99 101 102 103 104 104 102 106 107 108 109 101
225 109 78 117 129 189 89 183 173 191 152 146 133 153 172 285 103 174 187 194 170 50 117 316 333 233 130 196 148 179 156 150 157 154 156 151 154 157 164 174 174 185 187 189 186 179 180 181 186 177 177 178 173 174 168 147 136 132 130 127 127 126 117 111 104 100 98 98 95 89 84 75 68 57 62 58 79 91 88 81 72 97 112 106 104 103 102 104 104 106 107 106 107 110 107 104 91
134 140 96 164 160 216 158 208 14 204 145 155 137 130 163 105 267 177 199 340 94 80 197 171 221 287 349 236 62 77 125 145 152 155 151 151 153 158 168 177 184 187 193 193 191 186 185 188 190 189 184 185 180 180 175 162 137 136 133 130 126 121 114 109 109 103 101 99 99 102 101 110 103 82 72 81 71 90 95 103 92 103 114 116 111 110 105 107 110 110 110 114 110 109 103 86 79
177 271 164 120 173 224 150 187 162 191 105 120 131 172 173 171 170 307 344 270 175 155 199 87 190 270 340 47 55 73 112 142 149 155 155 155 159 164 169 181 191 191 195 199 196 191 188 190 191 194 193 190 186 185 183 170 143 136 136 124 120 120 116 111 110 110 110 111 117 113 131 139 134 131 137 113 118 100 83 82 89 86 94 104 114 116 114 117 116 117 112 111 106 99 88 80 59
215 207 190 189 104 201 161 177 185 16 149 161 180 191 177 153 170 149 178 155 31 121 210 115 221 245 41 84 27 61 133 156 165 160 166 164 167 169 182 192 192 196 194 197 199 198 192 190 191 197 194 194 188 188 190 177 154 174 171 155 151 133 123 129 139 145 139 134 124 148 152 146 144 143 134 126 130 127 99 73 82 87 91 97 104 113 116 113 105 101 117 124 119 109 121 111 94
210 118 222 195 175 91 173 145 149 148 150 162 174 190 218 164 161 170 189 174 177 176 209 200 201 203 158 156 132 177 165 168 173 174 171 173 179 181 188 190 196 195 196 198 199 200 196 189 196 198 198 195 194 192 194 186 175 187 183 169 153 158 150 161 162 156 161 154 160 158 155 145 143 142 123 81 88 57 75 69 67 74 86 88 87 94 108 96 99 114 126 126 110 123 127 139 133
18 219 190 187 164 71 149 151 152 322 116 139 159 182 247 112 179 142 223 161 181 209 190 198 219 200 202 153 149 168 175 174 185 181 182 183 186 188 191 196 198 202 197 198 196 197 197 194 196 199 200 197 196 194 196 196 191 195 187 175 168 172 170 173 166 174 171 171 166 167 149 139 147 127 101 117 126 136 97 83 81 83 83 90 101 100 84 75 105 120 122 129 136 139 127 139 147
135 216 195 138 151 140 159 201 110 86 328 154 151 126 203 162 161 180 164 159 208 224 221 202 203 204 184 151 157 164 176 182 191 191 190 192 193 195 199 200 201 201 202 198 201 198 196 199 197 199 198 198 201 194 196 200 197 195 187 189 178 179 176 176 176 179 175 176 176 164 144 144 155 146 157 153 170 160 159 150 144 151 151 143 159 135 146 141 172 150 156 180 136 134 136 135 145
147 359 8 63 150 110 106 140 82 113 308 143 138 155 181 113 126 207 177 206 185 214 218 218 228 201 159 162 163 166 180 187 192 193 195 195 194 198 201 204 204 208 203 207 206 202 199 197 200 199 199 199 199 201 198 199 204 198 189 187 188 179 178 177 178 180 177 181 185 175 150 157 161 155 160 160 160 160 164 170 172 171 163 164 171 160 159 168 171 175 169 157 136 136 131 135 145
193 129 14 49 358 96 116 147 132 177 148 154 166 154 104 171 170 202 221 219 65 60 36 349 335 60 106 132 148 170 183 191 195 198 196 197 199 201 202 204 204 206 205 212 208 209 206 202 199 202 200 200 201 204 201 198 205 208 199 186 181 191 187 180 181 183 182 184 185 183 171 168 169 166 163 165 162 165 165 163 162 163 174 169 163 156 163 174 179 167 163 143 128 125 121 128 134
287 146 139 103 333 96 66 118 122 222 175 160 112 111 170 171 194 143 223 225 85 90 38 19 73 107 132 145 173 177 185 190 196 199 198 199 198 200 201 204 208 209 211 212 213 212 209 207 202 204 206 202 199 200 203 202 207 211 203 170 185 183 185 188 185 191 180 183 194 188 192 173 174 172 171 171 169 170 167 164 164 164 168 163 166 164 172 175 176 162 155 137 145 140 142 142 145
202 131 196 114 47 59 97 109 154 167 74 64 135 163 159 188 107 128 235 225 180 138 92 101 104 131 152 162 174 184 191 198 201 200 204 210 209 208 209 213 214 211 215 213 213 214 210 210 206 209 205 206 204 200 202 202 205 211 194 186 199 168 187 194 196 184 181 188 197 193 198 182 179 175 175 175 174 175 164 168 172 176 172 169 174 173 179 178 175 167 164 167 164 163 156 164 163
179 87 123 128 88 88 100 116 133 150 117 171 156 166 63 120 31 249 239 154 45 65 141 96 126 151 174 184 182 183 190 195 194 195 202 202 208 209 212 213 215 215 214 215 215 216 214 207 209 211 210 206 202 203 208 201 203 211 204 194 189 164 196 194 189 188 192 191 192 200 200 202 186 180 176 176 179 174 169 171 178 176 180 175 183 182 182 186 179 175 171 172 169 167 172 159 178
98 112 101 102 88 113 352 141 128 118 135 205 179 158 110 116 255 226 90 90 354 181 181 144 185 186 187 187 189 196 195 195 193 190 192 203 207 211 212 213 216 217 212 214 214 215 212 211 209 212 211 204 207 208 209 210 203 203 205 203 188 177 187 194 190 195 195 193 198 202 204 211 194 188 179 178 181 173 175 178 186 178 183 181 186 185 182 190 183 184 180 179 178 176 174 160 196
114 126 101 74 97 80 104 102 114 175 129 250 197 116 70 130 177 251 114 50 233 202 184 187 203 203 188 195 194 198 207 200 190 186 194 196 204 207 208 208 211 210 211 212 213 211 213 212 213 211 211 207 212 213 211 210 206 206 209 204 199 188 185 182 189 199 198 197 188 180 187 194 197 188 182 178 183 179 182 185 183 183 187 183 187 185 182 187 184 167 161 168 167 174 166 172 185
140 192 120 53 123 113 27 117 103 292 122 196 228 135 207 178 229 182 103 16 145 206 197 197 206 210 197 196 206 204 207 194 190 201 206 204 203 204 210 209 205 206 213 213 212 212 216 213 213 213 209 209 212 215 213 216 209 204 200 210 208 189 180 183 190 191 196 206 190 182 184 181 188 192 188 186 183 181 181 182 185 188 188 184 185 180 177 177 175 170 165 173 172 175 173 175 173
178 53 112 114 155 167 65 312 37 236 84 115 227 224 219 208 216 113 141 39 119 181 209 204 209 205 206 200 212 218 206 199 205 213 209 207 206 208 213 206 206 204 202 206 210 214 212 215 212 214 212 211 213 218 219 218 215 212 213 204 193 193 191 194 195 199 194 191 196 191 186 183 186 191 186 187 189 190 187 187 187 189 189 179 179 174 186 190 188 181 175 182 184 190 186 183 185
172 150 239 188 166 191 73 351 353 185 74 193 245 242 221 112 214 91 113 188 227 218 200 200 211 215 210 210 217 223 218 215 219 219 219 215 212 211 212 208 204 204 201 202 208 210 207 212 209 212 209 214 211 217 218 220 221 222 217 214 206 202 202 201 194 196 198 196 197 199 196 185 189 193 190 187 192 195 190 191 193 192 176 171 172 185 193 194 196 189 180 188 181 196 192 184 194
84 151 190 93 221 131 105 72 345 215 132 260 207 251 251 158 148 99 44 190 206 237 216 196 210 222 221 215 222 228 230 218 228 233 229 227 223 223 216 213 207 205 209 207 205 206 212 211 209 215 211 215 215 216 217 222 223 227 231 233 215 202 202 204 198 199 207 210 194 187 187 189 196 196 192 193 193 198 195 197 201 191 174 179 184 184 192 193 196 196 193 190 181 191 185 187 193
271 261 134 185 213 152 174 146 14 353 117 160 241 259 66 231 50 97 51 128 184 228 237 232 225 228 229 226 224 230 232 226 226 229 228 223 224 222 221 217 213 211 209 207 202 201 212 212 211 214 213 211 214 212 212 214 218 223 218 205 210 201 203 207 209 198 195 188 190 189 184 192 192 194 198 193 196 200 203 202 200 187 177 186 188 189 196 201 194 195 198 206 199 188 187 185 186
189 349 187 69 198 162 206 77 211 354 253 193 205 247 239 44 199 180 175 226 257 229 236 228 227 226 225 229 232 232 233 231 225 221 218 212 219 216 219 218 217 214 213 210 207 203 206 208 210 216 220 218 214 215 214 217 221 222 221 219 207 198 199 205 196 188 186 186 186 200 196 197 198 205 202 193 198 204 205 202 188 178 178 185 193 205 210 204 195 193 202 207 215 204 191 188 187
167 182 188 193 301 261 351 170 132 239 162 228 189 244 255 246 217 201 198 187 259 266 261 264 255 240 229 230 235 237 238 235 237 221 206 202 211 214 215 216 215 214 211 209 209 208 206 206 209 217 221 221 221 223 225 227 223 239 247 242 236 232 227 216 206 203 191 189 198 199 196 204 206 208 204 192 191 191 199 200 199 179 183 188 188 197 206 207 202 193 196 196 213 226 223 197 182
186 186 181 120 176 192 203 77 63 265 187 215 206 223 237 242 247 240 213 186 240 267 273 263 249 241 241 235 234 232 234 240 238 206 170 196 203 205 210 210 211 210 211 207 208 205 207 207 206 215 216 218 219 218 213 210 205 203 204 214 236 230 229 224 222 222 205 201 198 199 202 205 199 198 198 194 200 204 205 206 199 165 178 184 188 196 206 203 193 182 195 183 184 192 244 183 130
78 66 112 157 180 123 58 107 40 264 237 229 228 245 266 265 262 264 261 191 245 253 256 252 248 237 228 226 227 230 230 238 132 198 216 207 207 205 204 204 208 209 209 207 205 207 204 204 203 210 210 212 213 213 215 216 215 217 222 221 217 220 215 207 206 208 211 207 193 202 211 215 201 193 196 185 199 203 211 205 179 169 181 189 194 199 201 202 187 180 180 173 170 180 204 175 152
165 161 178 165 246 181 71 98 61 59 244 191 73 264 260 258 257 257 263 259 259 245 247 244 244 238 231 226 235 229 236 248 219 240 220 207 211 198 193 199 197 200 208 203 206 206 203 202 202 204 201 208 212 213 210 211 213 218 218 223 220 213 209 206 213 217 219 217 204 192 201 194 189 190 190 195 200 205 205 193 185 184 179 188 203 210 182 175 181 185 159 162 192 194 205 182 158
104 186 177 165 196 43 138 101 116 56 210 247 101 274 265 254 249 247 238 240 248 239 237 248 243 235 228 226 238 244 241 253 238 228 216 209 199 202 198 201 203 211 206 201 205 201 200 199 202 198 198 201 211 211 209 211 211 212 218 225 218 221 226 226 226 227 228 230 230 224 204 197 194 195 192 196 201 206 211 203 197 182 182 178 189 201 194 194 194 190 186 185 181 205 198 167 200
151 134 172 206 119 176 201 147 142 46 307 347 349 299 278 266 241 240 237 232 248 256 268 266 252 246 237 230 230 244 248 252 257 235 223 201 197 202 203 208 205 198 195 195 195 197 195 200 199 196 197 200 208 209 211 213 211 210 215 227 228 239 237 232 241 243 243 238 235 224 222 216 207 205 203 201 203 205 198 205 204 199 195 191 191 184 189 199 194 192 186 197 163 174 205 207 203
304 241 176 146 155 220 4 134 130 162 149 283 266 272 274 237 245 239 179 300 282 268 265 255 243 235 247 276 279 246 248 248 262 263 224 212 230 223 210 207 192 196 202 197 191 192 194 196 193 192 194 198 204 203 203 205 192 181 165 103 108 125 110 211 206 217 215 220 232 225 221 214 214 210 209 213 213 212 207 202 198 195 194 194 196 199 198 205 201 199 192 186 185 194 201 202 201
177 247 234 188 180 145 103 114 154 188 211 65 353 277 261 111 238 243 279 297 242 193 249 255 240 222 213 237 241 236 234 238 246 255 245 197 224 230 202 195 196 200 200 198 189 190 189 186 186 184 190 191 203 202 196 195 188 179 165 178 193 204 214 207 211 213 209 214 217 224 229 214 209 206 204 210 212 214 212 202 199 197 195 193 198 206 208 202 204 199 195 197 203 207 204 182 191
173 206 170 152 153 133 133 141 182 212 239 73 326 234 265 93 286 171 0 300 280 208 221 255 246 224 231 242 248 238 233 223 227 251 255 241 224 218 216 199 199 200 199 172 173 187 188 185 181 183 187 188 196 196 193 186 186 199 199 205 209 211 219 226 228 229 230 229 227 226 220 220 220 218 215 213 212 208 208 205 203 199 201 193 193 202 206 202 200 201 193 199 210 201 187 209 200
211 58 169 127 137 148 165 157 214 38 40 139 228 337 270 290 256 37 351 292 278 272 226 230 236 241 244 252 258 262 257 235 237 238 236 245 228 202 202 187 190 195 166 164 178 183 184 181 176 182 185 184 189 190 189 186 191 198 203 207 211 218 221 230 228 231 232 234 229 223 221 226 224 224 222 219 219 213 213 218 216 215 211 209 200 209 207 207 208 209 202 202 207 200 199 207 199
227 182 266 131 134 111 127 151 126 50 298 225 155 331 274 246 265 115 2 286 260 260 256 192 184 234 262 272 274 273 274 263 246 248 248 241 204 187 190 173 169 154 155 171 174 170 169 169 173 178 184 184 188 181 179 187 193 197 201 206 216 222 228 233 237 232 231 228 227 228 232 237 241 236 235 235 226 221 212 216 216 215 212 209 200 207 207 202 205 198 194 186 200 200 204 210 209
229 141 100 98 91 77 88 120 119 158 199 246 153 359 252 274 203 227 79 275 262 254 248 149 221 228 273 289 290 287 287 272 238 239 246 275 175 125 122 106 139 140 138 141 134 144 157 166 176 178 181 185 180 176 179 185 193 194 199 206 214 218 221 230 228 229 231 233 235 232 235 240 240 241 236 236 239 237 228 216 221 220 213 212 205 210 214 218 218 216 212 212 216 218 218 218 217
133 185 108 92 65 68 83 54 54 169 243 235 52 338 283 292 216 219 194 220 233 239 277 315 206 199 211 244 278 298 303 288 230 180 189 183 65 97 130 138 123 111 118 139 144 155 164 172 174 176 176 175 171 173 177 179 185 191 200 205 210 215 215 222 226 227 224 230 236 238 239 243 243 243 240 239 236 237 238 234 228 222 217 211 208 212 214 209 208 214 214 214 218 215 214 214 224
154 148 128 111 67 115 98 84 324 221 242 77 341 342 293 219 256 238 271 329 259 245 208 171 184 10 343 352 354 332 309 290 174 155 138 136 133 122 137 134 136 130 139 145 156 162 167 167 167 165 167 171 168 167 171 174 183 194 205 208 214 219 220 216 223 229 225 227 234 244 250 256 256 255 252 249 244 238 238 238 235 231 224 217 210 212 209 205 207 211 213 212 218 220 224 221 226
211 147 153 158 151 156 191 185 216 212 240 84 23 256 242 237 241 319 259 272 248 217 237 248 270 289 325 342 16 335 311 288 165 135 137 151 151 149 151 141 139 152 155 155 155 160 161 163 165 158 165 170 168 167 172 177 186 195 201 207 215 222 226 232 240 244 242 242 240 243 251 257 265 264 259 254 247 240 240 239 238 233 228 225 228 222 222 216 208 211 215 224 222 215 215 213 222
194 169 163 163 158 172 210 183 352 334 17 31 72 84 266 293 281 238 251 252 231 205 234 244 251 260 285 321 339 322 312 301 80 121 134 149 154 152 149 153 157 148 149 152 152 155 156 160 165 164 152 159 158 169 175 180 191 196 202 208 216 218 225 232 239 246 244 240 230 230 234 239 250 251 254 250 254 241 237 244 247 245 242 239 230 232 225 219 220 227 228 229 228 228 222 216 227
203 7 178 187 173 161 188 173 197 206 146 91 238 190 233 190 190 29 276 346 276 304 276 278 273 272 281 300 293 278 273 207 152 135 147 153 160 158 158 159 153 153 151 151 157 157 158 160 165 158 143 152 156 163 171 179 182 190 196 205 210 215 226 228 233 229 230 232 237 241 247 246 248 256 259 268 271 260 252 245 245 250 251 249 245 235 233 226 218 226 239 242 240 237 227 223 224
16 228 28 148 212 185 187 62 17 121 145 157 188 232 271 230 359 268 221 267 264 238 272 262 266 238 240 266 249 232 196 153 146 140 137 140 141 152 149 153 149 147 156 155 160 158 161 156 155 150 150 154 164 166 172 177 176 172 181 192 204 214 223 228 227 218 224 234 250 255 261 257 261 265 261 264 269 269 262 257 250 246 250 253 252 249 244 235 224 223 238 243 245 222 214 219 227
185 135 205 167 15 99 113 84 66 348 5 245 143 266 260 262 267 266 135 330 267 176 232 238 253 222 194 237 199 180 169 153 148 148 142 136 136 142 119 137 145 153 166 176 168 165 164 153 156 157 151 153 166 170 164 166 159 170 185 192 201 209 217 220 222 219 225 229 256 263 261 267 273 270 271 275 273 268 262 257 258 257 255 252 252 250 251 252 245 235 238 238 239 239 238 238 229
104 221 173 143 212 105 126 186 99 45 235 247 111 235 261 326 286 60 307 221 247 231 235 229 242 164 225 211 176 170 168 152 113 108 100 100 106 123 132 157 187 174 169 167 161 157 157 157 164 155 153 156 155 153 161 165 172 182 180 191 204 212 215 218 225 233 233 235 242 251 257 263 261 271 275 272 270 268 263 259 257 257 256 253 251 251 253 255 251 249 247 245 241 236 235 233 234
297 160 142 168 166 204 257 118 193 174 224 260 207 270 271 233 239 59 246 219 250 215 208 212 221 204 214 194 162 151 127 131 151 150 151 156 159 161 163 163 145 353 48 120 129 146 154 141 115 114 127 119 136 152 161 163 184 175 179 188 198 205 214 212 211 225 244 250 253 261 268 275 279 275 269 272 268 267 263 261 258 258 257 256 254 250 248 251 248 249 242 240 237 235 238 240 236
76 171 131 334 285 330 160 201 48 202 236 83 255 118 258 180 222 208 248 238 234 229 169 208 207 197 197 175 154 160 170 170 160 162 161 160 157 155 159 155 161 171 169 161 148 146 135 111 116 118 103 131 142 160 168 176 179 177 166 178 199 212 206 202 203 210 220 230 253 264 273 274 273 277 275 278 270 264 263 261 259 256 257 256 255 252 251 252 254 249 241 241 239 233 235 240 242
136 174 168 159 38 296 5 36 165 216 200 205 276 259 235 189 206 204 225 233 199 223 219 212 198 200 192 174 168 169 178 172 167 162 159 157 155 154 155 151 125 100 72 124 148 137 118 123 147 161 165 161 165 166 174 174 162 164 169 188 187 190 189 184 187 198 226 249 283 285 281 283 287 278 288 282 267 264 264 264 262 259 255 256 253 254 254 256 255 251 240 242 245 232 235 242 239
190 167 183 178 134 142 174 213 80 1 203 215 180 258 264 207 133 207 224 253 155 230 245 227 223 209 203 182 207 176 172 171 158 153 152 149 149 147 136 124 111 129 134 139 121 121 137 153 157 155 147 155 157 166 172 154 153 151 166 166 165 159 148 136 152 108 294 328 299 285 286 289 286 295 293 274 267 266 265 266 266 264 264 263 264 263 262 259 259 258 250 241 243 240 242 243 237